| time (UTC) | temp F | wind direction | speed MPH | gust MPH | rain 1hr in | rain 24hr in | rain mn in | humidity % | barometer mb |
| 20260506184504 | 38 | 310 | 0.0 | 3.0 | 0.02 | 0.16 | 0.07 | 91 | 1004.8 |
| 20260506183604 | 37 | 305 | 0.0 | 4.0 | 0.01 | 0.15 | 0.06 | 93 | 1004.7 |
| 20260506182703 | 36 | 299 | 1.0 | 6.0 | 0.00 | 0.14 | 0.05 | 93 | 1004.9 |
| 20260506181803 | 35 | 295 | 1.0 | 4.0 | 0.00 | 0.14 | 0.05 | 94 | 1004.8 |
| 20260506180903 | 34 | 295 | 1.0 | 4.0 | 0.00 | 0.14 | 0.05 | 93 | 1004.9 |
| 20260506180004 | 34 | 309 | 0.0 | 2.0 | 0.00 | 0.14 | 0.05 | 93 | 1004.7 |
| 20260506175404 | 34 | 301 | 0.0 | 2.0 | 0.00 | 0.14 | 0.05 | 93 | 1004.7 |
| 20260506174503 | 34 | 249 | 0.0 | 3.0 | 0.00 | 0.14 | 0.05 | 93 | 1004.7 |
| 20260506173603 | 34 | 253 | 0.0 | 2.0 | 0.00 | 0.14 | 0.05 | 93 | 1004.6 |
| 20260506172703 | 34 | 284 | 0.0 | 2.0 | 0.00 | 0.14 | 0.05 | 93 | 1004.4 |
| 20260506171803 | 34 | 300 | 1.0 | 4.0 | 0.00 | 0.14 | 0.05 | 93 | 1004.0 |
| 20260506170903 | 34 | 289 | 0.0 | 4.0 | 0.00 | 0.14 | 0.05 | 93 | 1004.1 |
| 20260506170004 | 34 | 13 | 0.0 | 3.0 | 0.00 | 0.14 | 0.05 | 93 | 1004.4 |
| 20260506165618 | 34 | 336 | 0.0 | 1.0 | 0.00 | 0.14 | 0.05 | 93 | 1004.3 |
| 20260506164503 | 34 | 46 | 0.0 | 2.0 | 0.00 | 0.14 | 0.05 | 93 | 1004.2 |
| 20260506163817 | 34 | 256 | 0.0 | 3.0 | 0.00 | 0.14 | 0.05 | 93 | 1004.0 |
| 20260506162703 | 34 | 266 | 1.0 | 5.0 | 0.01 | 0.14 | 0.05 | 93 | 1003.3 |
| 20260506161803 | 34 | 279 | 1.0 | 4.0 | 0.01 | 0.14 | 0.05 | 93 | 1002.7 |
| 20260506160903 | 34 | 293 | 1.0 | 6.0 | 0.01 | 0.14 | 0.05 | 93 | 1002.6 |
| 20260506160003 | 34 | 286 | 1.0 | 7.0 | 0.01 | 0.14 | 0.05 | 94 | 1002.6 |
| 20260506155404 | 34 | 260 | 2.0 | 7.0 | 0.01 | 0.14 | 0.05 | 94 | 1002.3 |
| 20260506154503 | 33 | 139 | 5.0 | 20.0 | 0.01 | 0.14 | 0.05 | 94 | 1002.1 |
| 20260506153603 | 33 | 135 | 10.0 | 17.0 | 0.01 | 0.14 | 0.05 | 95 | 1002.0 |
| 20260506152703 | 33 | 149 | 7.0 | 14.0 | 0.00 | 0.13 | 0.04 | 95 | 1002.2 |
| 20260506151803 | 33 | 144 | 6.0 | 12.0 | 0.00 | 0.13 | 0.04 | 95 | 1002.1 |
| 20260506150903 | 32 | 144 | 7.0 | 16.0 | 0.00 | 0.13 | 0.04 | 95 | 1001.9 |
| 20260506150004 | 32 | 142 | 7.0 | 11.0 | 0.00 | 0.13 | 0.04 | 95 | 1001.7 |
| 20260506145403 | 32 | 140 | 7.0 | 11.0 | 0.00 | 0.13 | 0.04 | 95 | 1001.8 |
| 20260506144717 | 32 | 137 | 7.0 | 12.0 | 0.00 | 0.13 | 0.04 | 95 | 1001.8 |
| 20260506143604 | 32 | 136 | 8.0 | 13.0 | 0.00 | 0.13 | 0.04 | 95 | 1001.8 |
| 20260506142917 | 32 | 140 | 6.0 | 13.0 | 0.00 | 0.13 | 0.04 | 95 | 1001.8 |
| 20260506141803 | 32 | 141 | 4.0 | 8.0 | 0.00 | 0.13 | 0.04 | 95 | 1001.8 |
| 20260506140903 | 32 | 139 | 5.0 | 10.0 | 0.00 | 0.13 | 0.04 | 95 | 1001.4 |
| 20260506140004 | 32 | 130 | 6.0 | 10.0 | 0.00 | 0.13 | 0.04 | 95 | 1001.4 |
| 20260506135617 | 32 | 126 | 6.0 | 10.0 | 0.00 | 0.13 | 0.04 | 95 | 1001.5 |
| 20260506134503 | 32 | 132 | 4.0 | 9.0 | 0.00 | 0.13 | 0.04 | 94 | 1001.2 |
| 20260506133818 | 32 | 139 | 6.0 | 10.0 | 0.00 | 0.13 | 0.04 | 95 | 1001.0 |
| 20260506132703 | 33 | 147 | 6.0 | 12.0 | 0.00 | 0.13 | 0.04 | 94 | 1000.7 |
| 20260506131804 | 33 | 151 | 5.0 | 10.0 | 0.00 | 0.13 | 0.04 | 94 | 1000.6 |
| 20260506130903 | 33 | 146 | 4.0 | 9.0 | 0.01 | 0.13 | 0.04 | 94 | 1000.5 |
| 20260506130003 | 33 | 148 | 4.0 | 8.0 | 0.01 | 0.13 | 0.04 | 94 | 1000.2 |
| 20260506125403 | 33 | 156 | 3.0 | 8.0 | 0.01 | 0.13 | 0.04 | 94 | 1000.1 |
| 20260506124503 | 33 | 158 | 4.0 | 8.0 | 0.01 | 0.13 | 0.04 | 94 | 999.7 |
| 20260506123603 | 33 | 153 | 6.0 | 11.0 | 0.01 | 0.13 | 0.04 | 94 | 999.5 |
| 20260506122704 | 33 | 148 | 6.0 | 12.0 | 0.02 | 0.13 | 0.04 | 94 | 999.3 |
| 20260506121803 | 33 | 152 | 6.0 | 13.0 | 0.02 | 0.13 | 0.04 | 93 | 999.2 |
| 20260506121117 | 33 | 152 | 6.0 | 11.0 | 0.03 | 0.13 | 0.04 | 93 | 999.1 |
| 20260506120003 | 34 | 152 | 6.0 | 12.0 | 0.02 | 0.12 | 0.03 | 93 | 999.0 |
| 20260506115403 | 34 | 155 | 5.0 | 12.0 | 0.02 | 0.12 | 0.03 | 93 | 998.9 |
| 20260506114503 | 34 | 153 | 6.0 | 13.0 | 0.02 | 0.12 | 0.03 | 93 | 998.7 |
| 20260506113603 | 35 | 166 | 4.0 | 10.0 | 0.02 | 0.12 | 0.03 | 93 | 998.4 |
| 20260506112703 | 35 | 170 | 3.0 | 11.0 | 0.01 | 0.11 | 0.02 | 93 | 998.4 |
| 20260506112018 | 35 | 178 | 3.0 | 8.0 | 0.01 | 0.11 | 0.02 | 93 | 998.3 |
| 20260506110903 | 35 | 187 | 3.0 | 7.0 | 0.00 | 0.10 | 0.01 | 94 | 998.0 |
| 20260506110003 | 35 | 168 | 3.0 | 9.0 | 0.00 | 0.10 | 0.01 | 94 | 997.7 |
| 20260506105403 | 35 | 163 | 4.0 | 9.0 | 0.00 | 0.10 | 0.01 | 94 | 997.7 |
| 20260506104503 | 35 | 163 | 4.0 | 9.0 | 0.00 | 0.10 | 0.01 | 94 | 997.6 |
| 20260506103603 | 35 | 164 | 5.0 | 11.0 | 0.00 | 0.10 | 0.01 | 94 | 997.6 |
| 20260506102703 | 35 | 158 | 4.0 | 9.0 | 0.00 | 0.10 | 0.01 | 94 | 997.5 |
| 20260506101803 | 36 | 153 | 5.0 | 9.0 | 0.00 | 0.10 | 0.01 | 94 | 997.5 |
| 20260506100903 | 36 | 146 | 6.0 | 12.0 | 0.00 | 0.10 | 0.01 | 94 | 997.4 |
| 20260506100004 | 36 | 153 | 5.0 | 14.0 | 0.00 | 0.10 | 0.01 | 94 | 997.3 |
| 20260506095403 | 36 | 162 | 3.0 | 8.0 | 0.00 | 0.10 | 0.01 | 94 | 997.3 |
| 20260506094503 | 36 | 155 | 3.0 | 10.0 | 0.00 | 0.10 | 0.01 | 94 | 997.3 |
| 20260506093603 | 36 | 157 | 4.0 | 10.0 | 0.00 | 0.10 | 0.01 | 94 | 997.2 |
| 20260506092703 | 36 | 158 | 5.0 | 9.0 | 0.00 | 0.10 | 0.01 | 94 | 997.0 |
| 20260506091803 | 36 | 155 | 4.0 | 9.0 | 0.00 | 0.10 | 0.01 | 94 | 996.9 |
| 20260506091118 | 36 | 161 | 3.0 | 7.0 | 0.00 | 0.10 | 0.01 | 94 | 996.9 |
| 20260506090003 | 36 | 166 | 3.0 | 6.0 | 0.00 | 0.10 | 0.01 | 94 | 996.9 |
| 20260506085403 | 37 | 175 | 3.0 | 6.0 | 0.00 | 0.10 | 0.01 | 94 | 996.9 |
| 20260506084504 | 37 | 193 | 3.0 | 6.0 | 0.00 | 0.10 | 0.01 | 94 | 997.0 |
| 20260506083603 | 37 | 172 | 2.0 | 5.0 | 0.00 | 0.10 | 0.01 | 94 | 997.0 |
| 20260506082703 | 36 | 148 | 3.0 | 5.0 | 0.00 | 0.10 | 0.01 | 94 | 996.8 |
| 20260506081803 | 36 | 139 | 4.0 | 8.0 | 0.01 | 0.10 | 0.01 | 94 | 996.6 |
| 20260506081118 | 36 | 138 | 3.0 | 7.0 | 0.01 | 0.10 | 0.01 | 94 | 996.5 |
| 20260506080217 | 37 | 138 | 4.0 | 8.0 | 0.01 | 0.10 | 0.01 | 94 | 996.5 |
| 20260506072703 | 37 | 127 | 5.0 | 10.0 | 0.01 | 0.10 | 0.01 | 94 | 996.4 |
| 20260506072018 | 37 | 131 | 5.0 | 10.0 | 0.00 | 0.09 | 0.00 | 94 | 996.6 |
| 20260506071118 | 37 | 123 | 4.0 | 10.0 | 0.00 | 0.09 | 0.00 | 94 | 996.6 |
| 20260506061803 | 37 | 110 | 4.0 | 8.0 | 0.01 | 0.09 | 0.00 | 94 | 996.3 |
| 20260506060903 | 37 | 110 | 5.0 | 10.0 | 0.01 | 0.09 | 0.00 | 94 | 996.2 |
| 20260506050903 | 38 | 141 | 5.0 | 9.0 | 0.01 | 0.08 | 0.08 | 94 | 995.6 |
| 20260506044503 | 38 | 141 | 5.0 | 8.0 | 0.01 | 0.07 | 0.07 | 93 | 995.3 |
| 20260506043603 | 38 | 141 | 4.0 | 9.0 | 0.01 | 0.07 | 0.07 | 93 | 995.3 |
| 20260506042703 | 38 | 141 | 5.0 | 9.0 | 0.01 | 0.07 | 0.07 | 93 | 995.3 |
| 20260506041804 | 38 | 141 | 5.0 | 9.0 | 0.01 | 0.07 | 0.07 | 93 | 995.2 |
| 20260506041116 | 38 | 136 | 4.0 | 8.0 | 0.01 | 0.07 | 0.07 | 93 | 995.1 |
| 20260506040003 | 38 | 129 | 5.0 | 9.0 | 0.02 | 0.07 | 0.07 | 92 | 994.9 |
| 20260506035403 | 38 | 132 | 5.0 | 9.0 | 0.01 | 0.06 | 0.06 | 92 | 994.9 |
| 20260506034503 | 38 | 133 | 4.0 | 8.0 | 0.01 | 0.06 | 0.06 | 92 | 994.9 |
| 20260506033603 | 38 | 138 | 4.0 | 8.0 | 0.01 | 0.06 | 0.06 | 92 | 994.9 |
| 20260506032703 | 38 | 128 | 5.0 | 9.0 | 0.01 | 0.06 | 0.06 | 91 | 994.6 |
| 20260506031804 | 39 | 129 | 5.0 | 10.0 | 0.01 | 0.06 | 0.06 | 91 | 994.3 |
| 20260506030903 | 39 | 114 | 5.0 | 9.0 | 0.01 | 0.06 | 0.06 | 91 | 994.0 |
| 20260506030003 | 39 | 114 | 4.0 | 8.0 | 0.00 | 0.05 | 0.05 | 90 | 993.8 |
| 20260506025617 | 39 | 113 | 4.0 | 8.0 | 0.00 | 0.05 | 0.05 | 90 | 993.9 |
| 20260506024503 | 39 | 112 | 5.0 | 10.0 | 0.00 | 0.05 | 0.05 | 90 | 993.6 |
| 20260506023818 | 39 | 102 | 5.0 | 9.0 | 0.00 | 0.05 | 0.05 | 90 | 993.5 |
| 20260506022703 | 39 | 106 | 6.0 | 11.0 | 0.00 | 0.05 | 0.05 | 89 | 993.2 |
| 20260506021803 | 39 | 100 | 6.0 | 10.0 | 0.00 | 0.05 | 0.05 | 89 | 993.0 |
| 20260506020903 | 39 | 103 | 7.0 | 11.0 | 0.01 | 0.05 | 0.05 | 89 | 992.7 |
| 20260506020003 | 39 | 111 | 7.0 | 11.0 | 0.01 | 0.05 | 0.05 | 88 | 992.5 |
| 20260506015404 | 39 | 108 | 6.0 | 11.0 | 0.01 | 0.05 | 0.05 | 88 | 992.3 |
| 20260506014503 | 39 | 103 | 7.0 | 11.0 | 0.01 | 0.05 | 0.05 | 88 | 992.1 |
| 20260506013603 | 40 | 100 | 6.0 | 10.0 | 0.01 | 0.05 | 0.05 | 88 | 991.8 |
| 20260506012703 | 40 | 104 | 7.0 | 12.0 | 0.01 | 0.05 | 0.05 | 87 | 991.3 |
| 20260506011803 | 40 | 108 | 7.0 | 12.0 | 0.01 | 0.05 | 0.05 | 87 | 991.2 |
| 20260506010903 | 40 | 108 | 7.0 | 12.0 | 0.00 | 0.04 | 0.04 | 87 | 991.1 |
| 20260506010004 | 40 | 98 | 8.0 | 13.0 | 0.00 | 0.04 | 0.04 | 88 | 990.9 |
| 20260506005618 | 40 | 95 | 8.0 | 13.0 | 0.00 | 0.04 | 0.04 | 88 | 990.7 |
| 20260506004504 | 40 | 100 | 6.0 | 10.0 | 0.00 | 0.04 | 0.04 | 88 | 990.8 |
| 20260506003603 | 40 | 114 | 7.0 | 11.0 | 0.01 | 0.04 | 0.04 | 87 | 990.9 |
| 20260506002703 | 40 | 114 | 7.0 | 13.0 | 0.01 | 0.04 | 0.04 | 87 | 990.5 |
| 20260506001804 | 41 | 104 | 8.0 | 14.0 | 0.01 | 0.04 | 0.04 | 88 | 989.9 |
| 20260506000903 | 41 | 88 | 6.0 | 12.0 | 0.02 | 0.04 | 0.04 | 88 | 989.8 |
| 20260506000003 | 41 | 97 | 6.0 | 10.0 | 0.02 | 0.04 | 0.04 | 88 | 989.9 |
| 20260505235403 | 41 | 99 | 6.0 | 14.0 | 0.03 | 0.04 | 0.04 | 87 | 989.8 |
| 20260505234503 | 41 | 106 | 8.0 | 14.0 | 0.03 | 0.04 | 0.04 | 86 | 989.2 |
| 20260505233604 | 42 | 106 | 7.0 | 11.0 | 0.02 | 0.03 | 0.03 | 86 | 989.7 |
| 20260505232703 | 42 | 106 | 6.0 | 11.0 | 0.02 | 0.03 | 0.03 | 86 | 989.9 |
| 20260505231803 | 42 | 117 | 6.0 | 13.0 | 0.02 | 0.03 | 0.03 | 86 | 989.8 |
| 20260505230903 | 42 | 105 | 7.0 | 12.0 | 0.01 | 0.02 | 0.02 | 85 | 989.3 |
| 20260505230003 | 42 | 114 | 7.0 | 13.0 | 0.01 | 0.02 | 0.02 | 84 | 989.2 |
| 20260505225403 | 42 | 108 | 8.0 | 13.0 | 0.00 | 0.01 | 0.01 | 83 | 989.3 |
| 20260505224503 | 43 | 112 | 7.0 | 13.0 | 0.00 | 0.01 | 0.01 | 82 | 989.4 |
| 20260505223604 | 43 | 111 | 7.0 | 11.0 | 0.01 | 0.01 | 0.01 | 81 | 989.6 |
| 20260505222703 | 43 | 106 | 6.0 | 11.0 | 0.01 | 0.01 | 0.01 | 82 | 989.5 |
| 20260505222017 | 43 | 93 | 7.0 | 11.0 | 0.01 | 0.01 | 0.01 | 83 | 989.7 |
| 20260505220903 | 43 | 80 | 6.0 | 10.0 | 0.01 | 0.01 | 0.01 | 84 | 989.5 |
| 20260505220004 | 43 | 84 | 7.0 | 11.0 | 0.01 | 0.01 | 0.01 | 84 | 989.4 |
| 20260505215403 | 43 | 84 | 6.0 | 11.0 | 0.01 | 0.01 | 0.01 | 84 | 989.5 |
| 20260505214503 | 43 | 80 | 6.0 | 11.0 | 0.01 | 0.01 | 0.01 | 85 | 989.6 |
| 20260505213604 | 43 | 80 | 6.0 | 11.0 | 0.00 | 0.00 | 0.00 | 84 | 989.7 |
| 20260505212703 | 43 | 79 | 6.0 | 10.0 | 0.00 | 0.00 | 0.00 | 83 | 989.7 |
| 20260505211803 | 43 | 80 | 6.0 | 10.0 | 0.00 | 0.00 | 0.00 | 82 | 989.8 |
| 20260505210903 | 43 | 81 | 6.0 | 10.0 | 0.00 | 0.00 | 0.00 | 81 | 989.6 |
| 20260505210217 | 43 | 65 | 6.0 | 10.0 | 0.00 | 0.00 | 0.00 | 81 | 989.8 |
| 20260505205403 | 43 | 74 | 6.0 | 10.0 | 0.00 | 0.00 | 0.00 | 79 | 989.9 |
| 20260505204503 | 43 | 64 | 6.0 | 12.0 | 0.00 | 0.00 | 0.00 | 80 | 989.9 |
| 20260505203603 | 43 | 65 | 6.0 | 10.0 | 0.00 | 0.00 | 0.00 | 80 | 990.0 |
| 20260505202703 | 43 | 77 | 8.0 | 13.0 | 0.00 | 0.00 | 0.00 | 79 | 989.9 |
| 20260505202018 | 43 | 74 | 6.0 | 13.0 | 0.00 | 0.00 | 0.00 | 80 | 990.0 |
| 20260505200904 | 43 | 76 | 7.0 | 11.0 | 0.00 | 0.00 | 0.00 | 80 | 989.9 |
| 20260505200003 | 43 | 77 | 10.0 | 15.0 | 0.00 | 0.00 | 0.00 | 81 | 989.7 |
| 20260505195403 | 43 | 79 | 11.0 | 16.0 | 0.00 | 0.00 | 0.00 | 81 | 989.6 |
| 20260505194503 | 43 | 78 | 9.0 | 17.0 | 0.00 | 0.00 | 0.00 | 81 | 989.6 |
| 20260505193603 | 44 | 80 | 10.0 | 17.0 | 0.00 | 0.00 | 0.00 | 81 | 989.6 |
| 20260505192703 | 44 | 84 | 8.0 | 13.0 | 0.00 | 0.00 | 0.00 | 81 | 989.6 |
| 20260505191803 | 44 | 83 | 8.0 | 15.0 | 0.00 | 0.00 | 0.00 | 81 | 989.5 |
| 20260505190903 | 43 | 85 | 8.0 | 15.0 | 0.00 | 0.00 | 0.00 | 82 | 989.6 |
| 20260505190004 | 43 | 85 | 9.0 | 18.0 | 0.00 | 0.00 | 0.00 | 83 | 989.6 |